Weather History for Bryce Canyon, UT

Change the Weather History Date:

Wednesday, January 30, 2013

  Actual Average Record
Temperature  
Mean Temperature 18 °F -  
Max Temperature 33 °F 35 °F 52 °F (2003)
Min Temperature 3 °F 7 °F -25 °F (1979)
Degree Days  
Heating Degree Days 47    
Moisture  
Dew Point 17 °F    
Average Humidity 78    
Maximum Humidity 91    
Minimum Humidity 66    
Precipitation  
Precipitation 0.00 in - - ()
Sea Level Pressure  
Sea Level Pressure 30.21 in    
Wind  
Wind Speed 13 mph (NW)    
Max Wind Speed 23 mph    
Max Gust Speed 31 mph    
Visibility 10 miles    
Events      
Averages and records for this station are not official NWS values.
T = Trace of Precipitation, MM = Missing Value Source: NWS Daily Summary

Daily Weather History Graph

Daily Weather History Graph

Search for Another Location

Airport:

Trip Planner

Search our weather history database for the weather conditions in past years. The results will help you decide how hot, cold, wet, or windy it might be!

Date:

Astronomy

Jan. 30, 2013 Rise Set
Actual Time 7:33 AM MST 5:50 PM MST
Civil Twilight 7:06 AM MST 6:18 PM MST
Nautical Twilight 6:34 AM MST 6:49 PM MST
Astronomical Twilight 6:03 AM MST 7:20 PM MST
Moon 9:47 PM MST (1/30) 9:08 AM MST (1/30)
Length of Visible Light 11h 12m
Length of Day
10h 16m
Waning Gibbous, 87% of the Moon is Illuminated
Jan 30
Waning Gibbous
Feb 3
Last Quarter
Feb 10
New
Feb 17
First Quarter
Feb 25
Full

Hourly Weather History & Observations

Time (MST) Temp. Windchill Dew Point Humidity Pressure Visibility Wind Dir Wind Speed Gust Speed Precip Events Conditions
12:53 AM 15.1 °F 0.5 °F 10.9 °F 84% 30.17 in 10.0 mi NW 13.8 mph - N/A   Mostly Cloudy
1:53 AM 10.0 °F 0.4 °F 6.1 °F 84% 30.22 in 10.0 mi WNW 5.8 mph - N/A   Partly Cloudy
2:53 AM 12.0 °F 2.7 °F 8.1 °F 84% 30.22 in 10.0 mi NW 5.8 mph - N/A   Mostly Cloudy
3:53 AM 3.9 °F -9.4 °F 1.9 °F 91% 30.26 in 10.0 mi WNW 8.1 mph - N/A   Clear
4:53 AM 9.0 °F 2.4 °F 3.9 °F 80% 30.24 in 10.0 mi NNE 3.5 mph - N/A   Clear
5:53 AM 16.0 °F 1.7 °F 10.0 °F 77% 30.20 in 10.0 mi WNW 13.8 mph - N/A   Clear
6:53 AM 18.0 °F 1.7 °F 12.9 °F 81% 30.19 in 10.0 mi WNW 19.6 mph 26.5 mph N/A   Clear
7:53 AM 19.0 °F 3.2 °F 14.0 °F 81% 30.21 in 10.0 mi WNW 19.6 mph - N/A   Mostly Cloudy
8:37 AM 23.0 °F 9.2 °F 17.6 °F 80% 30.17 in 10.0 mi NW 17.3 mph 21.9 mph N/A   Mostly Cloudy
8:53 AM 23.0 °F 8.0 °F 17.1 °F 78% 30.21 in 10.0 mi WNW 20.7 mph 27.6 mph N/A   Overcast
9:25 AM 24.8 °F 14.6 °F 17.6 °F 74% 30.17 in 10.0 mi North 10.4 mph 19.6 mph N/A   Scattered Clouds
9:53 AM 24.1 °F 14.4 °F 17.1 °F 75% 30.20 in 10.0 mi NNW 9.2 mph 20.7 mph N/A   Clear
10:24 AM 26.6 °F 14.7 °F 19.4 °F 74% 30.19 in 10.0 mi NNW 15.0 mph 28.8 mph N/A   Mostly Cloudy
10:53 AM 28.0 °F 15.3 °F 19.9 °F 72% 30.23 in 10.0 mi NW 18.4 mph 27.6 mph N/A   Overcast
11:29 AM 30.2 °F 18.1 °F 21.2 °F 69% 30.21 in 10.0 mi NW 18.4 mph 26.5 mph N/A   Overcast
11:53 AM 30.9 °F 18.4 °F 21.9 °F 69% 30.22 in 10.0 mi WNW 20.7 mph 31.1 mph N/A   Mostly Cloudy
12:53 PM 30.9 °F 17.8 °F 21.9 °F 69% 30.19 in 10.0 mi WNW 23.0 mph 29.9 mph N/A   Clear
1:53 PM 33.1 °F 21.2 °F 23.0 °F 66% 30.19 in 10.0 mi WNW 20.7 mph 27.6 mph N/A   Clear
2:53 PM 33.1 °F 21.2 °F 24.1 °F 70% 30.18 in 10.0 mi WNW 20.7 mph 29.9 mph N/A   Clear
3:53 PM 30.9 °F 18.4 °F 23.0 °F 72% 30.26 in 10.0 mi WNW 20.7 mph - N/A   Clear
4:53 PM 30.9 °F 19.8 °F 23.0 °F 72% 30.24 in 10.0 mi WNW 16.1 mph - N/A   Clear
5:53 PM 28.9 °F 17.3 °F 23.0 °F 78% 30.21 in 10.0 mi WNW 16.1 mph - N/A   Clear
6:53 PM 28.0 °F 18.1 °F 23.0 °F 81% 30.23 in 10.0 mi NW 11.5 mph - N/A   Clear
7:53 PM 23.0 °F 14.7 °F 19.0 °F 85% 30.27 in 10.0 mi NNW 6.9 mph - N/A   Clear
8:53 PM 24.1 °F 15.2 °F 19.9 °F 84% 30.24 in 10.0 mi NNW 8.1 mph - N/A   Clear
9:53 PM 26.1 °F 15.0 °F 21.0 °F 81% 30.23 in 10.0 mi WNW 12.7 mph - N/A   Clear
10:53 PM 25.0 °F 12.2 °F 19.9 °F 81% 30.21 in 10.0 mi West 16.1 mph - N/A   Clear
11:53 PM 25.0 °F 17.1 °F 19.9 °F 81% 30.21 in 10.0 mi Variable 6.9 mph - N/A   Clear